TimeCST,TemperatureF,Dew PointF,Humidity,Sea Level PressureIn,VisibilityMPH,Wind Direction,Wind SpeedMPH,Gust SpeedMPH,PrecipitationIn,Events,Conditions,WindDirDegrees,DateUTC
12:55 AM,41.0,29.1,63,30.16,10.0,Calm,Calm,-,N/A,,Clear,0,2012-11-25 06:55:00
1:55 AM,35.2,31.5,86,30.16,10.0,North,3.5,-,N/A,,Clear,350,2012-11-25 07:55:00
2:55 AM,33.8,30.2,87,30.17,10.0,North,3.5,-,N/A,,Clear,360,2012-11-25 08:55:00
3:55 AM,31.3,28.9,91,30.17,10.0,North,6.9,-,N/A,,Clear,10,2012-11-25 09:55:00
4:55 AM,31.3,28.6,90,30.17,10.0,North,4.6,-,N/A,,Clear,10,2012-11-25 10:55:00
5:55 AM,30.9,27.7,88,30.19,10.0,North,5.8,-,N/A,,Clear,360,2012-11-25 11:55:00
6:55 AM,32.9,29.1,86,30.22,10.0,North,3.5,-,N/A,,Clear,10,2012-11-25 12:55:00
7:55 AM,42.6,31.6,65,30.24,10.0,ENE,3.5,-,N/A,,Clear,60,2012-11-25 13:55:00
8:55 AM,50.7,32.4,49,30.25,10.0,East,5.8,-,N/A,,Clear,80,2012-11-25 14:55:00
9:55 AM,54.7,30.0,39,30.25,10.0,East,5.8,-,N/A,,Clear,100,2012-11-25 15:55:00
9:58 AM,55.4,30.2,38,30.25,10.0,East,5.8,-,N/A,,Light Drizzle,100,2012-11-25 15:58:00
10:08 AM,55.4,30.2,38,30.24,10.0,East,4.6,-,N/A,,Clear,100,2012-11-25 16:08:00
10:42 AM,55.4,28.4,36,30.23,10.0,Calm,Calm,-,N/A,,Light Drizzle,0,2012-11-25 16:42:00
10:55 AM,56.8,29.7,35,30.22,10.0,Variable,3.5,-,0.00,,Light Drizzle,0,2012-11-25 16:55:00
11:00 AM,57.2,30.2,36,30.22,10.0,SE,5.8,-,N/A,,Clear,140,2012-11-25 17:00:00
11:05 AM,57.2,33.8,41,30.21,10.0,Variable,4.6,-,N/A,,Light Drizzle,0,2012-11-25 17:05:00
11:11 AM,57.2,33.8,41,30.21,10.0,SSE,5.8,-,N/A,,Clear,150,2012-11-25 17:11:00
11:14 AM,57.2,33.8,41,30.21,10.0,SSE,5.8,-,N/A,,Light Drizzle,150,2012-11-25 17:14:00
11:24 AM,57.2,33.8,41,30.20,10.0,SSE,8.1,-,N/A,,Clear,160,2012-11-25 17:24:00
11:55 AM,57.7,34.2,41,30.19,10.0,South,9.2,-,0.00,,Clear,170,2012-11-25 17:55:00
12:18 PM,57.2,33.8,41,30.18,10.0,SSE,8.1,-,N/A,Rain,Light Rain,160,2012-11-25 18:18:00
12:20 PM,57.2,33.8,41,30.18,10.0,SSE,9.2,-,N/A,,Clear,160,2012-11-25 18:20:00
12:55 PM,57.6,34.2,41,30.17,10.0,South,8.1,-,0.00,,Clear,170,2012-11-25 18:55:00
1:02 PM,59.0,35.6,42,30.17,10.0,South,8.1,-,N/A,,Light Drizzle,170,2012-11-25 19:02:00
1:11 PM,57.2,33.8,41,30.16,10.0,South,9.2,-,N/A,,Clear,180,2012-11-25 19:11:00
1:54 PM,59.0,37.4,45,30.15,10.0,South,5.8,-,N/A,Rain,Light Rain,190,2012-11-25 19:54:00
1:55 PM,58.3,36.9,45,30.15,10.0,South,4.6,-,0.00,Rain,Light Rain,190,2012-11-25 19:55:00
1:59 PM,59.0,37.4,45,30.15,10.0,Variable,4.6,-,N/A,,Clear,0,2012-11-25 19:59:00
2:29 PM,59.0,37.4,45,30.15,10.0,SSW,5.8,-,N/A,Rain,Light Rain,210,2012-11-25 20:29:00
2:36 PM,59.0,37.4,45,30.15,10.0,South,5.8,-,N/A,,Clear,180,2012-11-25 20:36:00
2:55 PM,59.0,38.3,46,30.14,10.0,SW,5.8,-,0.00,,Clear,230,2012-11-25 20:55:00
3:53 PM,57.2,37.4,48,30.14,10.0,SW,5.8,-,N/A,,Light Drizzle,230,2012-11-25 21:53:00
3:55 PM,58.1,36.9,45,30.14,10.0,WSW,4.6,-,0.00,,Light Drizzle,240,2012-11-25 21:55:00
3:57 PM,57.2,37.4,48,30.14,10.0,SW,4.6,-,N/A,,Clear,230,2012-11-25 21:57:00
4:00 PM,57.2,37.4,48,30.14,10.0,WSW,4.6,-,N/A,Rain,Light Rain,240,2012-11-25 22:00:00
4:10 PM,57.2,37.4,48,30.14,10.0,SSW,4.6,-,N/A,,Clear,210,2012-11-25 22:10:00
4:55 PM,55.4,38.8,54,30.14,10.0,Calm,Calm,-,0.00,,Clear,0,2012-11-25 22:55:00
5:55 PM,50.0,40.3,69,30.14,10.0,Calm,Calm,-,N/A,,Clear,0,2012-11-25 23:55:00
6:55 PM,44.1,39.2,83,30.16,10.0,Calm,Calm,-,N/A,,Clear,0,2012-11-26 00:55:00
7:55 PM,40.1,37.8,91,30.17,10.0,North,4.6,-,N/A,,Clear,10,2012-11-26 01:55:00
8:55 PM,38.3,36.5,93,30.17,10.0,North,4.6,-,N/A,,Clear,10,2012-11-26 02:55:00
9:55 PM,37.4,36.0,95,30.16,10.0,North,4.6,-,N/A,,Clear,360,2012-11-26 03:55:00
10:55 PM,36.7,35.4,95,30.16,10.0,North,5.8,-,N/A,,Clear,10,2012-11-26 04:55:00
11:55 PM,35.8,34.5,95,30.14,10.0,North,5.8,-,N/A,,Clear,360,2012-11-26 05:55:00